Phoenix, AZ

5:40 AM MST on August 30, 2016 (GMT -0700)
Phoenix-Deer Valley Municipal

Weather History for KDVT - December, 2012

Change the Weather History Date:

Thursday, December 27, 2012

  Actual Average Record
Temperature  
Mean Temperature 45 °F -  
Max Temperature 53 °F 61 °F 70 °F (2013)
Min Temperature 37 °F 41 °F 32 °F (2008)
Degree Days  
Heating Degree Days 20    
Moisture  
Dew Point 30 °F    
Average Humidity 58    
Maximum Humidity 82    
Minimum Humidity 40    
Precipitation  
Precipitation 0.00 in - - ()
Sea Level Pressure  
Sea Level Pressure 29.90 in    
Wind  
Wind Speed 3 mph (ESE)    
Max Wind Speed 10 mph    
Max Gust Speed -    
Visibility 10 miles    
Events Rain    
Averages and records for this station are not official NWS values.
T = Trace of Precipitation, MM = Missing Value Source: NWS Daily Summary

Daily Weather History Graph

Daily Weather History Graph

Search for Another Location

Airport or City:

Trip Planner

Search our weather history database for the weather conditions in past years. The results will help you decide how hot, cold, wet, or windy it might be!

Date:

Astronomy

Dec. 27, 2012 Rise Set
Actual Time 7:31 AM MST 5:27 PM MST
Civil Twilight 7:04 AM MST 5:55 PM MST
Nautical Twilight 6:32 AM MST 6:26 PM MST
Astronomical Twilight 6:02 AM MST 6:56 PM MST
Moon 5:12 PM MST (12/27) 6:46 AM MST (12/27)
Length of Visible Light 10h 51m
Length of Day
9h 55m
Full, 100% of the Moon is Illuminated
Dec 27
Full
Dec 28
Full
Jan 4
Last Quarter
Jan 11
New
Jan 18
First Quarter

Hourly Weather History & Observations

Time (MST) Temp. Windchill Dew Point Humidity Pressure Visibility Wind Dir Wind Speed Gust Speed Precip Events Conditions
12:53 AM 41.0 °F - 27.0 °F 57% 29.88 in 10.0 mi Calm Calm - N/A   Clear
1:53 AM 41.0 °F - 27.0 °F 57% 29.88 in 10.0 mi Calm Calm - N/A   Clear
2:53 AM 39.9 °F 37.8 °F 27.0 °F 60% 29.87 in 10.0 mi NE 3.5 mph - N/A   Clear
3:53 AM 37.0 °F 33.3 °F 28.0 °F 70% 29.86 in 10.0 mi East 4.6 mph - N/A   Mostly Cloudy
4:53 AM 39.9 °F 37.8 °F 28.0 °F 63% 29.85 in 10.0 mi East 3.5 mph - N/A   Overcast
6:53 AM 39.9 °F 37.8 °F 28.9 °F 65% 29.86 in 10.0 mi NE 3.5 mph - N/A   Scattered Clouds
7:53 AM 39.9 °F - 30.0 °F 68% 29.88 in 10.0 mi Calm Calm - N/A   Overcast
8:53 AM 42.1 °F 40.2 °F 30.9 °F 65% 29.89 in 10.0 mi East 3.5 mph - N/A   Overcast
9:53 AM 45.0 °F - 30.0 °F 56% 29.92 in 10.0 mi Calm Calm - N/A   Overcast
10:53 AM 48.0 °F - 30.0 °F 50% 29.92 in 10.0 mi ESE 5.8 mph - 0.00 in Rain Light Rain
11:53 AM 48.0 °F - 30.0 °F 50% 29.90 in 10.0 mi South 4.6 mph - 0.00 in   Overcast
12:53 PM 48.9 °F - 30.9 °F 50% 29.87 in 10.0 mi South 4.6 mph - N/A   Partly Cloudy
1:53 PM 52.0 °F - 28.9 °F 41% 29.85 in 10.0 mi SSW 8.1 mph - N/A   Clear
2:53 PM 53.1 °F - 28.9 °F 40% 29.84 in 10.0 mi SSW 8.1 mph - N/A   Clear
3:53 PM 53.1 °F - 28.9 °F 40% 29.86 in 10.0 mi WSW 8.1 mph - N/A   Clear
5:18 PM 51.8 °F - 30.2 °F 44% 29.90 in 10.0 mi NE 10.4 mph - N/A   Mostly Cloudy
5:53 PM 51.1 °F - 30.9 °F 46% 29.90 in 10.0 mi NE 5.8 mph - 0.00 in   Overcast
6:53 PM 48.9 °F - 34.0 °F 56% 29.92 in 10.0 mi East 5.8 mph - 0.00 in   Clear
7:53 PM 46.0 °F 43.1 °F 35.1 °F 66% 29.94 in 10.0 mi East 5.8 mph - N/A   Clear
8:53 PM 45.0 °F 42.6 °F 34.0 °F 65% 29.96 in 10.0 mi ENE 4.6 mph - N/A   Clear
9:53 PM 43.0 °F - 34.0 °F 71% 29.98 in 10.0 mi Calm Calm - N/A   Clear
10:53 PM 43.0 °F - 34.0 °F 71% 30.01 in 10.0 mi Calm Calm - N/A   Clear
11:53 PM 39.0 °F - 34.0 °F 82% 30.03 in 10.0 mi Calm Calm - N/A   Clear